Location: Casilda
(33.0440°S, 61.1680°W)
Time: 11:32:04
(UTC-03:00)

ISS - Pass Details

Date: 19 October 2019
Orbit: 411 x 421 km, 51.6° (Epoch: 18 October)

Event Time Altitude Azimuth Distance (km) Brightness Sun altitude
Rises 20:23:48 0° 303° (WNW) 2,345 0.6 -13.5°
Reaches altitude 10° 20:25:55 10° 296° (WNW) 1,491 -0.4 -13.9°
Maximum altitude 20:29:10 47° 221° (SW) 568 -2.7 -14.5°
Drops below altitude 10° 20:32:27 10° 145° (SE) 1,512 -1.1 -15.2°
Enters shadow 20:34:16 - 140° (SE) 2,239 -0.2 -15.5°
